QPF
0.00 0.00 0.00 0.00 0.00 0.00 0.00 0.00 0.00 0.00 0.00 0.00 0.00 0.00 0.00 0.00 0.00 0.00 0.00 0.00 0.00 0.00 0.00 0.00 0.00 0.00 0.00 0.00 0.00 0.00 0.00 0.00 0.00 0.00 0.00 0.00 0.00 0.00 0.00 0.00 0.00 0.00 0.00 0.00
0.00 0.00 0.00 0.00 0.00 0.00 0.00 0.00 0.00 0.00 0.00 0.00 0.00 0.00 0.00 0.00 0.00 0.00 0.00 0.00 0.00 0.00 0.00 0.00 0.00 0.00 0.00 0.00 0.00 0.00 0.00 0.00 0.00 0.00 0.00 0.00 0.00 0.00 0.00 0.00 0.01 0.00 0.00 0.00
0.00 0.00 0.00 0.00 0.00 0.00 0.00 0.00 0.00 0.00 0.00 0.00 0.00 0.00 0.00 0.00 0.00 0.00 0.00 0.00 0.00 0.00 0.00 0.00 0.00 0.00 0.00 0.00 0.00 0.00 0.00 0.00 0.00 0.00 0.00 0.00 0.00 0.00 0.00 0.00 0.00 0.00 0.00 0.01
0.00 0.00 0.00 0.00 0.00 0.00 0.00 0.00 0.00 0.00 0.00 0.00 0.00 0.00 0.00 0.00 0.00 0.00 0.00 0.00 0.00 0.00 0.00 0.00 0.00 0.00 0.00 0.00 0.00 0.00 0.00 0.00 0.00 0.00 0.00 0.00 0.00 0.00 0.00 0.00 0.00 0.00 0.00 0.03
0.00 0.00 0.00 0.00 0.00 0.00 0.00 0.00 0.00 0.00 0.00 0.00 0.00 0.00 0.00 0.00 0.00 0.00 0.00 0.00 0.00 0.00 0.00 0.00 0.00 0.00 0.00 0.00 0.00 0.00 0.00 0.00 0.00 0.00 0.00 0.00 0.00 0.00 0.00 0.00 0.00 0.00 0.01 0.03
0.00 0.00 0.00 0.00 0.00 0.00 0.00 0.00 0.00 0.00 0.00 0.00 0.00 0.00 0.00 0.00 0.00 0.00 0.00 0.00 0.00 0.00 0.00 0.00 0.00 0.00 0.00 0.00 0.00 0.00 0.00 0.00 0.00 0.00 0.00 0.00 0.00 0.00 0.00 0.00 0.00 0.00 0.00 0.00
0.00 0.00 0.00 0.00 0.00 0.00 0.00 0.00 0.00 0.00 0.00 0.00 0.00 0.00 0.00 0.00 0.00 0.00 0.00 0.00 0.00 0.00 0.00 0.00 0.00 0.00 0.00 0.00 0.00 0.00 0.00 0.00 0.00 0.00 0.00 0.00 0.00 0.00 0.00 0.00 0.00 0.00 0.00 0.00
0.00 0.00 0.00 0.00 0.00 0.00 0.00 0.00 0.00 0.00 0.00 0.00 0.00 0.00 0.00 0.00 0.00 0.00 0.00 0.00 0.00 0.00 0.00 0.00 0.00 0.00 0.00 0.00 0.00 0.00 0.00 0.00 0.00 0.00 0.00 0.00 0.00 0.00 0.01 0.00 0.00 0.00 0.00 0.02
0.00 0.00 0.00 0.00 0.00 0.00 0.00 0.00 0.00 0.00 0.00 0.00 0.00 0.00 0.00 0.00 0.00 0.00 0.00 0.00 0.00 0.00 0.00 0.00 0.00 0.00 0.00 0.00 0.00 0.00 0.00 0.00 0.00 0.00 0.00 0.00 0.00 0.01 0.01 0.00 0.00 0.00 0.01 0.03
0.00 0.00 0.00 0.00 0.00 0.00 0.00 0.00 0.00 0.00 0.00 0.00 0.00 0.00 0.00 0.00 0.00 0.00 0.00 0.00 0.00 0.00 0.00 0.00 0.00 0.00 0.00 0.00 0.00 0.00 0.00 0.00 0.00 0.00 0.00 0.00 0.00 0.00 0.00 0.00 0.00 0.01 0.03 0.05
0.01 0.01 0.00 0.00 0.00 0.00 0.00 0.00 0.00 0.00 0.00 0.00 0.00 0.00 0.00 0.00 0.00 0.00 0.00 0.00 0.00 0.00 0.00 0.00 0.00 0.00 0.00 0.00 0.00 0.00 0.00 0.00 0.00 0.00 0.00 0.00 0.00 0.00 0.00 0.00 0.00 0.01 0.02 0.02
0.11 0.05 0.00 0.00 0.00 0.00 0.00 0.00 0.00 0.02 0.06 0.20 0.30 0.33 0.21 0.05 0.00 0.00 0.00 0.00 0.00 0.00 0.01 0.01 0.00 0.00 0.00 0.00 0.00 0.00 0.00 0.00 0.00 0.00 0.00 0.00 0.00 0.00 0.00 0.00 0.00 0.00 0.00 0.00
0.06 0.04 0.02 0.01 0.00 0.00 0.00 0.00 0.00 0.01 0.04 0.10 0.21 0.37 0.47 0.35 0.08 0.01 0.00 0.00 0.02 0.00 0.00 0.00 0.00 0.00 0.00 0.00 0.00 0.00 0.00 0.00 0.00 0.00 0.00 0.00 0.00 0.00 0.00 0.00 0.00 0.00 0.00 0.00
0.02 0.01 0.00 0.00 0.00 0.00 0.00 0.00 0.00 0.00 0.00 0.00 0.01 0.02 0.05 0.09 0.09 0.06 0.01 0.02 0.00 0.00 0.00 0.00 0.00 0.00 0.00 0.00 0.00 0.00 0.00 0.00 0.00 0.00 0.00 0.00 0.00 0.00 0.00 0.00 0.00 0.00 0.00 0.00
0.03 0.00 0.00 0.00 0.00 0.00 0.00 0.00 0.00 0.00 0.00 0.00 0.00 0.00 0.00 0.00 0.01 0.01 0.00 0.01 0.00 0.00 0.00 0.00 0.00 0.00 0.00 0.00 0.00 0.00 0.00 0.00 0.00 0.00 0.00 0.00 0.00 0.00 0.00 0.00 0.00 0.00 0.00 0.00
0.02 0.01 0.01 0.00 0.00 0.00 0.00 0.00 0.00 0.00 0.00 0.00 0.00 0.00 0.00 0.00 0.01 0.02 0.01 0.00 0.01 0.02 0.01 0.01 0.00 0.00 0.00 0.00 0.00 0.00 0.00 0.00 0.00 0.00 0.00 0.00 0.00 0.00 0.00 0.00 0.00 0.00 0.00 0.00
0.01 0.02 0.02 0.01 0.00 0.00 0.00 0.00 0.00 0.00 0.00 0.00 0.00 0.00 0.00 0.00 0.00 0.00 0.00 0.00 0.00 0.00 0.00 0.04 0.02 0.00 0.00 0.00 0.00 0.00 0.00 0.00 0.00 0.00 0.00 0.00 0.00 0.00 0.00 0.00 0.00 0.00 0.00 0.00
0.00 0.00 0.01 0.01 0.00 0.00 0.00 0.00 0.00 0.00 0.00 0.00 0.00 0.00 0.00 0.00 0.00 0.00 0.00 0.00 0.00 0.00 0.00 0.01 0.01 0.00 0.00 0.00 0.00 0.00 0.00 0.00 0.00 0.00 0.00 0.00 0.00 0.00 0.00 0.00 0.00 0.00 0.00 0.00
0.01 0.00 0.00 0.00 0.00 0.00 0.00 0.00 0.00 0.00 0.00 0.00 0.00 0.00 0.00 0.00 0.00 0.00 0.00 0.00 0.00 0.00 0.00 0.00 0.00 0.01 0.01 0.00 0.00 0.00 0.00 0.00 0.00 0.00 0.00 0.00 0.00 0.00 0.00 0.01 0.00 0.00 0.00 0.00
0.00 0.00 0.00 0.00 0.00 0.00 0.00 0.00 0.00 0.00 0.00 0.00 0.00 0.00 0.00 0.00 0.00 0.00 0.00 0.01 0.02 0.02 0.01 0.00 0.01 0.02 0.01 0.00 0.00 0.00 0.00 0.00 0.00 0.00 0.01 0.01 0.00 0.01 0.01 0.01 0.01 0.00 0.00 0.00
0.00 0.00 0.00 0.00 0.00 0.00 0.00 0.00 0.00 0.00 0.00 0.00 0.00 0.00 0.00 0.00 0.00 0.00 0.01 0.03 0.04 0.00 0.01 0.02 0.04 0.02 0.00 0.00 0.00 0.00 0.00 0.00 0.00 0.00 0.00 0.00 0.00 0.00 0.00 0.00 0.00 0.00 0.00 0.00
0.00 0.00 0.00 0.00 0.00 0.00 0.00 0.00 0.02 0.03 0.03 0.02 0.00 0.00 0.00 0.00 0.00 0.01 0.02 0.01 0.01 0.00 0.00 0.00 0.00 0.00 0.00 0.00 0.00 0.00 0.00 0.00 0.00 0.00 0.00 0.00 0.00 0.00 0.00 0.00 0.00 0.00 0.00 0.00
0.00 0.00 0.00 0.00 0.00 0.00 0.00 0.00 0.00 0.00 0.00 0.00 0.00 0.00 0.00 0.00 0.00 0.01 0.03 0.00 0.00 0.00 0.00 0.00 0.00 0.00 0.00 0.00 0.00 0.00 0.00 0.00 0.00 0.00 0.00 0.00 0.00 0.00 0.00 0.00 0.00 0.00 0.00 0.00
0.00 0.00 0.00 0.00 0.00 0.00 0.00 0.00 0.00 0.00 0.00 0.00 0.00 0.00 0.00 0.00 0.00 0.00 0.00 0.00 0.00 0.00 0.00 0.00 0.00 0.00 0.00 0.00 0.00 0.00 0.00 0.00 0.00 0.00 0.00 0.00 0.00 0.00 0.00 0.00 0.00 0.00 0.00 0.00
0.00 0.00 0.00 0.00 0.00 0.00 0.00 0.00 0.00 0.00 0.00 0.00 0.00 0.00 0.00 0.00 0.00 0.00 0.00 0.00 0.00 0.00 0.00 0.00 0.00 0.00 0.00 0.00 0.00 0.00 0.00 0.00 0.00 0.00 0.00 0.00 0.00 0.00 0.00 0.00 0.00 0.00 0.00 0.00
0.00 0.00 0.00 0.00 0.00 0.00 0.00 0.00 0.00 0.00 0.00 0.00 0.00 0.00 0.00 0.00 0.00 0.00 0.00 0.00 0.00 0.00 0.00 0.00 0.00 0.00 0.00 0.00 0.00 0.00 0.00 0.00 0.00 0.00 0.00 0.00 0.00 0.00 0.00 0.00 0.00 0.00 0.00 0.00
0.00 0.00 0.00 0.00 0.00 0.00 0.00 0.00 0.00 0.00 0.00 0.00 0.00 0.00 0.00 0.00 0.00 0.00 0.00 0.00 0.00 0.00 0.00 0.00 0.00 0.01 0.00 0.00 0.00 0.00 0.00 0.00 0.00 0.00 0.00 0.00 0.00 0.00 0.00 0.00 0.00 0.00 0.00 0.00
MSLP
987.07 987.09 986.72 986.33 986.46 986.93 987.21 987.39 987.36 986.81 986.95 986.93 986.38 987.40 987.56 988.16 988.59 989.34 989.42 989.72 990.49 991.10 991.95 993.07 994.41 995.66 996.81 998.06 999.44 1000.38 1001.47 1002.28 1003.04 1003.74 1004.35 1005.08 1005.82 1006.33 1006.98 1007.53 1008.22 1009.00 1009.75 1010.40
987.05 986.83 986.53 985.94 985.82 985.80 985.95 986.43 986.66 986.90 986.46 986.45 986.46 986.42 986.92 987.57 989.18 988.64 989.00 989.41 989.98 990.76 991.53 992.52 993.65 994.88 995.87 996.92 998.10 999.24 1000.23 1001.09 1001.88 1002.78 1003.50 1004.21 1004.90 1005.62 1006.35 1006.96 1007.65 1008.37 1009.05 1009.67
987.36 987.37 986.60 985.91 984.73 985.24 985.30 985.56 986.01 986.15 985.88 986.36 986.29 986.39 986.39 986.95 987.39 987.61 988.31 988.74 989.34 990.37 991.08 991.67 992.68 993.76 995.03 995.95 997.01 998.25 999.26 1000.16 1000.93 1001.68 1002.56 1003.46 1004.37 1005.14 1005.77 1006.44 1007.16 1007.92 1008.57 1009.33
987.68 987.82 986.40 984.30 985.28 985.43 985.39 985.27 985.31 985.36 985.60 986.08 986.14 986.19 986.48 986.86 987.43 987.63 987.49 987.88 988.46 989.30 990.34 991.25 991.88 993.10 994.23 995.46 996.39 997.35 998.40 999.32 1000.14 1000.85 1001.72 1002.79 1003.74 1004.45 1005.15 1005.87 1006.67 1007.56 1008.39 1009.11
987.29 987.10 986.42 985.77 985.22 985.30 985.05 985.25 985.42 985.26 985.40 985.63 985.90 986.10 985.86 986.15 986.56 986.89 987.42 987.22 987.58 988.18 989.16 990.38 991.29 992.25 993.50 994.69 995.65 996.66 997.52 998.37 999.27 1000.12 1001.22 1002.30 1003.19 1004.05 1004.97 1005.89 1006.76 1007.52 1008.24 1009.11
987.45 987.03 985.78 985.73 985.38 986.25 986.44 986.33 986.26 985.92 985.64 985.70 985.53 985.76 985.83 985.79 985.81 986.09 986.50 986.86 987.00 987.14 988.47 989.76 990.91 991.81 993.05 994.14 995.12 995.94 996.71 997.64 998.64 999.74 1000.86 1001.96 1003.08 1004.17 1005.11 1005.98 1006.76 1007.31 1008.12 1008.83
987.52 987.19 986.67 986.51 986.19 986.74 987.11 987.19 987.24 986.98 986.81 986.70 986.70 986.59 986.55 985.69 985.77 985.44 985.65 986.16 986.83 987.59 988.40 989.44 990.72 991.68 992.88 993.85 994.81 995.70 996.81 997.96 998.96 1000.01 1001.03 1002.10 1003.11 1004.09 1005.15 1006.07 1006.79 1007.46 1008.05 1008.56
987.83 987.45 988.06 987.37 988.41 987.48 987.33 987.43 987.70 987.49 987.25 986.97 986.84 986.89 986.62 986.27 986.02 986.24 985.73 986.02 986.82 988.04 988.85 989.86 990.83 992.08 993.37 994.41 995.45 996.40 997.42 998.37 999.46 1000.55 1001.39 1002.49 1003.59 1004.42 1005.41 1006.15 1006.81 1007.41 1007.90 1008.25
988.56 987.58 987.68 986.50 987.56 987.82 987.91 987.77 987.86 987.78 987.60 987.54 987.41 987.06 986.44 986.20 986.37 986.53 987.28 987.08 987.82 989.33 990.37 991.12 991.69 992.61 993.81 994.96 996.06 997.06 997.95 999.04 1000.11 1001.14 1001.97 1002.94 1003.65 1004.96 1005.74 1006.22 1006.75 1007.24 1007.58 1007.88
990.21 989.04 988.30 988.00 988.29 988.52 988.26 988.21 988.28 988.84 988.95 988.42 987.80 987.52 987.54 987.40 987.55 987.86 988.07 988.42 989.19 990.24 991.60 992.55 993.06 993.72 994.62 995.64 996.63 997.54 998.60 999.81 1000.75 1001.66 1002.63 1003.51 1004.57 1005.28 1005.98 1006.51 1006.93 1007.15 1007.32 1007.70
990.84 989.99 990.10 989.96 989.77 990.04 989.30 989.74 990.18 990.65 990.99 991.07 990.35 990.27 989.60 989.33 989.03 989.03 989.44 990.01 990.74 991.79 992.78 993.76 994.33 994.89 995.59 996.66 997.42 998.28 999.33 1000.43 1001.48 1002.45 1003.33 1004.21 1005.35 1006.24 1006.32 1006.92 1007.20 1007.27 1007.41 1007.63
995.16 994.09 991.34 992.39 991.85 991.41 990.82 991.07 991.48 991.68 992.29 992.92 993.00 993.51 992.95 992.32 991.30 990.99 991.26 991.81 992.79 993.74 994.57 995.14 995.71 996.10 996.51 997.41 998.07 998.74 999.92 1001.06 1001.97 1002.80 1003.82 1004.55 1005.61 1006.88 1007.53 1007.58 1007.64 1007.64 1007.29 1007.06
997.38 997.03 993.47 993.95 993.18 992.81 992.17 992.24 992.51 993.11 993.60 994.46 994.76 994.32 994.70 994.13 993.13 992.90 993.26 993.86 994.45 994.98 995.71 996.20 996.83 997.46 997.59 997.89 998.39 999.15 1000.06 1000.98 1001.56 1002.50 1003.25 1004.14 1004.85 1005.68 1007.00 1008.25 1007.84 1007.95 1008.02 1008.14
998.39 997.52 996.97 996.14 996.63 995.85 994.36 994.34 994.68 994.82 994.85 995.07 995.18 995.75 995.61 995.15 995.53 995.02 995.08 995.69 995.73 996.24 996.66 997.14 997.51 997.97 998.24 998.37 998.99 999.23 999.56 1000.29 1001.03 1001.21 1002.10 1002.90 1003.42 1004.29 1005.14 1006.41 1007.10 1008.09 1008.88 1009.15
998.55 999.54 999.97 1000.15 1000.12 998.47 996.64 996.72 996.45 996.63 996.97 996.87 996.59 996.70 996.94 997.33 997.26 996.81 996.35 996.51 996.80 996.85 997.29 997.28 997.82 998.45 999.04 998.77 999.01 999.24 999.76 1000.09 999.88 1000.35 1001.09 1001.93 1002.54 1003.03 1003.91 1005.00 1005.72 1007.21 1008.91 1009.48
1000.19 999.77 999.88 999.83 999.52 998.95 999.28 999.36 998.99 999.28 998.76 998.52 998.19 998.10 997.91 997.91 997.79 997.64 997.70 997.51 997.22 997.45 997.77 997.81 998.67 998.62 999.26 999.56 999.25 999.64 999.87 999.99 1000.31 1000.15 1000.99 1001.59 1002.00 1002.50 1003.03 1003.69 1005.28 1006.47 1007.43 1008.04
1000.54 1001.17 1001.36 1001.48 1001.31 1001.18 1001.40 1000.91 1000.81 1000.68 1000.50 1000.32 999.52 999.31 998.91 998.59 998.53 998.62 998.44 998.41 998.29 998.12 998.22 998.98 998.66 998.74 999.07 999.98 999.54 999.89 999.68 1000.56 1000.71 1000.19 1000.95 1001.54 1001.86 1002.41 1002.64 1003.00 1003.93 1005.30 1006.17 1007.07
1001.67 1001.78 1001.95 1001.98 1001.75 1001.67 1001.67 1001.64 1001.67 1001.76 1002.14 1002.15 1000.83 999.85 999.60 999.26 999.34 999.34 998.84 998.43 999.20 999.33 999.56 999.56 999.68 999.55 999.62 999.90 1000.06 999.50 999.87 1000.43 1000.50 1000.51 1000.92 1001.51 1001.62 1002.09 1002.43 1002.75 1003.46 1004.59 1005.08 1006.41
1001.48 1001.41 1001.40 1001.09 1001.13 1001.46 1001.52 1001.81 1001.75 1002.07 1001.89 1002.07 1001.55 1000.43 1000.11 999.74 999.68 999.56 999.30 999.50 999.82 1000.16 1000.34 1000.13 1000.28 1000.33 1000.12 999.91 1000.20 1000.14 999.96 1000.28 1000.30 1001.21 1001.52 1001.58 1002.31 1002.41 1003.08 1003.32 1004.26 1005.18 1005.25 1006.30
1001.17 1000.74 1000.22 1000.21 1000.72 1000.89 1001.52 1001.69 1001.93 1002.11 1001.45 1001.43 1001.21 1001.01 1000.95 1000.46 999.99 999.95 999.65 1000.32 1000.60 1000.85 1000.70 1000.68 1000.54 1000.63 1000.38 1000.28 1000.47 1000.57 1000.42 1000.96 1001.01 1001.52 1001.85 1002.13 1002.61 1003.09 1003.87 1003.94 1004.28 1004.51 1005.25 1005.84
1001.26 1000.87 1000.65 1001.20 1001.53 1001.33 1001.41 1001.48 1001.76 1001.84 1001.84 1001.57 1001.42 1001.30 1001.25 1001.01 1000.79 1000.65 1000.83 1001.13 1001.17 1001.25 1001.13 1001.10 1001.40 1001.12 1000.89 1000.62 1000.81 1000.78 1001.24 1001.32 1001.85 1002.18 1001.93 1002.35 1002.81 1002.90 1003.08 1003.13 1003.41 1003.80 1004.90 1005.15
1001.77 1001.42 1001.26 1001.31 1001.47 1001.91 1002.22 1002.56 1002.47 1002.37 1002.20 1002.06 1001.92 1001.80 1001.61 1001.39 1001.30 1001.40 1001.58 1001.55 1001.50 1001.59 1001.58 1001.54 1001.70 1001.83 1001.51 1001.59 1001.01 1000.89 1001.24 1001.53 1001.73 1001.64 1002.36 1002.30 1002.35 1002.69 1002.66 1003.08 1003.52 1003.66 1003.75 1004.30
1002.38 1002.23 1002.09 1002.05 1002.16 1002.27 1002.48 1002.63 1002.66 1002.45 1002.32 1002.16 1002.02 1001.86 1001.66 1001.60 1001.71 1001.68 1001.93 1002.41 1002.28 1002.24 1002.08 1002.22 1002.20 1002.31 1002.32 1001.60 1001.23 1001.01 1001.08 1001.40 1001.73 1001.92 1002.47 1002.42 1002.66 1002.85 1002.91 1003.07 1003.09 1003.63 1003.92 1003.92
1002.96 1003.12 1002.88 1002.66 1002.59 1002.63 1002.73 1002.61 1002.38 1002.30 1002.34 1002.28 1002.25 1002.18 1001.86 1001.67 1001.74 1001.88 1002.30 1002.56 1002.60 1002.50 1002.42 1002.41 1002.74 1002.58 1002.73 1002.02 1001.69 1001.39 1001.41 1001.77 1002.11 1002.55 1002.55 1002.66 1002.65 1002.94 1003.05 1003.17 1003.20 1003.50 1003.74 1003.80
1003.72 1003.32 1003.19 1003.17 1003.31 1003.28 1003.02 1002.93 1002.88 1002.67 1002.74 1002.66 1002.45 1002.45 1002.31 1002.14 1001.95 1001.94 1002.07 1002.79 1002.57 1002.63 1002.71 1002.78 1002.84 1002.96 1002.63 1002.39 1002.08 1001.61 1001.72 1002.08 1002.39 1002.40 1002.10 1002.30 1002.12 1002.42 1002.72 1003.05 1003.28 1003.42 1003.61 1003.75
1004.17 1003.89 1004.05 1004.22 1004.13 1004.00 1003.79 1003.71 1003.66 1003.43 1003.33 1003.20 1003.09 1002.98 1002.59 1002.47 1002.71 1002.35 1002.41 1002.34 1002.11 1002.16 1002.07 1002.29 1002.64 1002.86 1002.38 1002.06 1001.93 1001.67 1001.90 1002.01 1002.23 1002.23 1002.18 1002.03 1001.96 1002.27 1002.68 1002.72 1002.97 1003.30 1003.45 1003.58
1004.81 1005.10 1004.94 1005.15 1005.21 1005.15 1004.79 1004.73 1004.48 1004.40 1004.32 1004.10 1003.90 1003.79 1003.33 1002.95 1002.81 1002.65 1002.68 1002.72 1002.50 1002.41 1002.44 1002.30 1002.65 1002.76 1003.00 1002.60 1002.32 1002.29 1002.53 1002.23 1002.90 1002.69 1001.81 1002.11 1002.28 1002.38 1002.27 1002.39 1002.60 1002.75 1003.20 1003.42
Thickness
5805 5815 5827 5827 5825 5826 5815 5820 5805 5830 5836 5859 5884 5884 5886 5896 5891 5888 5896 5900 5900 5900 5896 5893 5888 5885 5882 5875 5866 5862 5854 5849 5844 5842 5839 5835 5829 5825 5819 5814 5806 5798 5790 5783
5782 5809 5814 5814 5829 5832 5830 5826 5823 5828 5832 5876 5887 5896 5893 5885 5878 5884 5888 5895 5895 5899 5898 5894 5887 5884 5882 5877 5871 5866 5858 5853 5851 5845 5841 5836 5831 5824 5819 5811 5804 5797 5790 5782
5755 5788 5799 5789 5813 5825 5833 5837 5830 5812 5836 5862 5864 5874 5886 5888 5889 5886 5885 5893 5894 5889 5894 5897 5892 5889 5880 5879 5876 5867 5860 5856 5853 5849 5842 5836 5830 5822 5815 5808 5802 5794 5787 5777
5753 5769 5742 5806 5834 5833 5825 5834 5844 5843 5846 5850 5855 5867 5874 5882 5875 5878 5886 5890 5895 5896 5894 5895 5898 5889 5884 5878 5873 5867 5860 5856 5853 5850 5844 5836 5828 5821 5815 5808 5799 5789 5780 5772
5743 5748 5776 5796 5816 5816 5817 5814 5838 5837 5845 5852 5857 5860 5860 5877 5883 5880 5881 5893 5896 5902 5894 5896 5893 5891 5882 5876 5872 5865 5860 5857 5854 5850 5841 5833 5825 5818 5811 5800 5790 5782 5773 5762
5747 5732 5736 5786 5815 5814 5812 5779 5823 5826 5830 5836 5849 5823 5837 5872 5880 5883 5888 5891 5893 5900 5892 5890 5888 5888 5877 5871 5867 5861 5862 5858 5854 5846 5837 5828 5820 5811 5802 5792 5783 5777 5766 5758
5733 5735 5759 5793 5801 5805 5756 5776 5806 5815 5817 5820 5814 5825 5839 5863 5865 5879 5885 5886 5890 5885 5883 5882 5883 5880 5869 5866 5860 5861 5857 5850 5843 5837 5828 5822 5814 5804 5793 5784 5776 5766 5757 5750
5733 5726 5710 5774 5767 5752 5783 5796 5800 5805 5812 5816 5825 5831 5837 5846 5853 5858 5869 5874 5877 5871 5870 5876 5875 5866 5856 5851 5851 5849 5843 5837 5831 5824 5819 5811 5800 5792 5784 5774 5765 5755 5747 5739
5728 5741 5764 5766 5770 5779 5787 5786 5793 5801 5812 5815 5817 5823 5837 5837 5840 5846 5845 5855 5857 5850 5851 5854 5856 5853 5843 5840 5839 5834 5829 5823 5817 5811 5806 5797 5788 5778 5770 5764 5756 5747 5740 5732
5720 5743 5757 5764 5768 5773 5781 5781 5792 5791 5793 5807 5811 5817 5815 5817 5823 5826 5830 5834 5836 5834 5829 5828 5834 5836 5833 5831 5828 5822 5815 5807 5802 5796 5789 5783 5774 5768 5760 5752 5745 5738 5731 5722
5720 5739 5736 5738 5742 5751 5766 5768 5769 5771 5769 5772 5780 5781 5790 5795 5801 5807 5810 5814 5816 5812 5810 5810 5815 5818 5820 5815 5813 5807 5800 5793 5785 5779 5773 5765 5755 5750 5748 5735 5732 5729 5722 5715
5671 5679 5718 5707 5725 5736 5742 5747 5752 5754 5751 5748 5750 5746 5753 5761 5775 5782 5785 5790 5790 5790 5790 5792 5797 5800 5803 5801 5798 5794 5784 5776 5770 5764 5756 5751 5741 5730 5717 5715 5710 5706 5707 5710
5638 5648 5671 5687 5709 5725 5731 5734 5741 5739 5734 5726 5731 5735 5729 5724 5745 5759 5764 5767 5769 5771 5773 5776 5777 5777 5784 5788 5786 5780 5772 5765 5762 5755 5749 5741 5735 5727 5714 5700 5696 5691 5688 5685
5638 5644 5644 5662 5676 5695 5712 5717 5717 5721 5721 5722 5721 5717 5694 5704 5721 5737 5744 5749 5755 5757 5758 5760 5761 5762 5769 5772 5767 5766 5765 5757 5753 5752 5744 5738 5734 5725 5718 5705 5698 5686 5668 5666
5637 5636 5628 5632 5644 5667 5687 5691 5696 5697 5695 5698 5705 5704 5701 5702 5709 5719 5731 5737 5740 5744 5744 5749 5745 5746 5748 5755 5756 5755 5751 5746 5747 5742 5741 5735 5727 5721 5714 5703 5696 5678 5660 5652
5617 5628 5635 5641 5649 5658 5659 5660 5664 5664 5673 5677 5682 5688 5696 5701 5706 5710 5716 5723 5727 5727 5732 5735 5731 5738 5737 5737 5740 5738 5739 5737 5732 5734 5728 5722 5718 5712 5704 5696 5683 5672 5662 5656
5612 5611 5615 5617 5623 5629 5628 5637 5637 5642 5647 5653 5668 5673 5681 5689 5692 5695 5702 5707 5712 5718 5725 5720 5723 5731 5732 5724 5728 5726 5730 5721 5715 5724 5716 5710 5706 5697 5693 5690 5683 5669 5662 5656
5605 5610 5610 5612 5617 5616 5619 5626 5627 5630 5629 5631 5646 5662 5668 5672 5670 5679 5689 5700 5696 5699 5702 5707 5709 5715 5717 5714 5712 5718 5714 5709 5710 5709 5702 5695 5695 5689 5683 5681 5674 5663 5661 5650
5605 5608 5611 5618 5620 5618 5621 5620 5622 5623 5629 5627 5634 5648 5657 5667 5670 5675 5682 5681 5679 5679 5683 5692 5691 5695 5699 5702 5694 5697 5699 5698 5698 5687 5682 5683 5675 5673 5666 5664 5653 5649 5648 5637
5606 5613 5621 5622 5619 5621 5612 5615 5616 5617 5628 5629 5635 5637 5639 5649 5659 5663 5669 5661 5664 5662 5670 5675 5677 5675 5680 5685 5684 5686 5686 5676 5677 5671 5669 5667 5661 5655 5646 5646 5645 5645 5636 5631
5601 5608 5612 5607 5606 5611 5613 5617 5616 5615 5618 5624 5626 5629 5632 5637 5642 5644 5642 5643 5650 5655 5660 5662 5660 5665 5669 5673 5672 5669 5665 5664 5657 5653 5658 5652 5649 5648 5646 5648 5644 5638 5627 5625
5595 5599 5602 5604 5605 5602 5604 5603 5606 5608 5611 5615 5620 5622 5626 5629 5634 5635 5636 5637 5644 5644 5650 5652 5651 5648 5652 5650 5655 5657 5654 5651 5649 5651 5644 5645 5643 5639 5638 5634 5630 5630 5629 5624
5590 5592 5594 5596 5597 5600 5601 5600 5601 5606 5609 5612 5614 5617 5620 5624 5625 5624 5622 5624 5629 5631 5637 5637 5635 5634 5634 5639 5642 5644 5642 5642 5638 5637 5631 5632 5629 5627 5626 5624 5624 5620 5616 5616
5584 5583 5586 5593 5596 5595 5595 5598 5606 5606 5606 5608 5609 5611 5615 5616 5618 5622 5618 5616 5615 5620 5623 5621 5618 5619 5617 5624 5627 5629 5630 5627 5625 5620 5620 5619 5620 5617 5615 5614 5613 5610 5608 5608
5576 5583 5585 5584 5583 5584 5588 5593 5594 5595 5598 5599 5602 5603 5605 5608 5609 5612 5613 5606 5606 5607 5608 5607 5607 5606 5609 5610 5613 5617 5617 5613 5613 5612 5613 5611 5612 5610 5606 5603 5600 5600 5599 5599
5574 5578 5578 5576 5578 5580 5582 5583 5582 5584 5585 5585 5587 5589 5594 5596 5597 5599 5600 5600 5604 5602 5603 5601 5598 5597 5601 5603 5604 5605 5604 5603 5601 5600 5600 5602 5603 5599 5594 5595 5594 5592 5592 5591
5568 5563 5567 5564 5564 5565 5568 5569 5568 5567 5571 5572 5571 5575 5579 5584 5585 5588 5586 5586 5589 5591 5589 5589 5585 5586 5583 5587 5589 5588 5586 5588 5583 5585 5594 5590 5588 5587 5589 5588 5587 5587 5584 5582